Hot Springs, AR

6:36 PM CDT on April 24, 2017 (GMT -0500)
Hot Springs Memorial

Weather History for KHOT - January, 2014

Change the Weather History Date:

Friday, January 17, 2014

  Actual Average Record
Temperature  
Mean Temperature 36 °F -  
Max Temperature 45 °F 51 °F 78 °F (1952)
Min Temperature 27 °F 29 °F 4 °F (1982)
Degree Days  
Heating Degree Days 29    
Moisture  
Dew Point 8 °F    
Average Humidity 31    
Maximum Humidity 61    
Minimum Humidity 18    
Precipitation  
Precipitation 0.00 in - - ()
Sea Level Pressure  
Sea Level Pressure 30.18 in    
Wind  
Wind Speed 9 mph (WNW)    
Max Wind Speed 16 mph    
Max Gust Speed 34 mph    
Visibility 10 miles    
Events      
Averages and records for this station are not official NWS values.
T = Trace of Precipitation, MM = Missing Value Source: NWS Daily Summary

Daily Weather History Graph

Daily Weather History Graph

Search for Another Location

Airport or City:

Trip Planner

Search our weather history database for the weather conditions in past years. The results will help you decide how hot, cold, wet, or windy it might be!

Date:

Astronomy

Jan. 17, 2014 Rise Set
Actual Time 7:18 AM CST 5:27 PM CST
Civil Twilight 6:50 AM CST 5:54 PM CST
Nautical Twilight 6:20 AM CST 6:25 PM CST
Astronomical Twilight 5:49 AM CST 6:55 PM CST
Moon 7:07 PM CST (1/17) 7:51 AM CST (1/17)
Length of Visible Light 11h 03m
Length of Day
10h 09m
Full, 98% of the Moon is Illuminated
Jan 17
Full
Jan 23
Last Quarter
Jan 30
New
Feb 6
First Quarter
Feb 14
Full

Hourly Weather History & Observations

Time (CST) Temp. Windchill Dew Point Humidity Pressure Visibility Wind Dir Wind Speed Gust Speed Precip Events Conditions
12:53 AM 44.1 °F 40.8 °F 17.1 °F 34% 30.04 in 10.0 mi West 5.8 mph - N/A   Clear
1:53 AM 45.0 °F 40.1 °F 12.0 °F 26% 30.06 in 10.0 mi WNW 9.2 mph 17.3 mph N/A   Clear
2:53 AM 43.0 °F 36.4 °F 12.9 °F 30% 30.08 in 10.0 mi NW 12.7 mph 31.1 mph N/A   Clear
3:53 AM 42.1 °F 35.7 °F 14.0 °F 32% 30.10 in 10.0 mi NW 11.5 mph 21.9 mph N/A   Clear
4:53 AM 39.0 °F 30.3 °F 10.9 °F 32% 30.13 in 10.0 mi NW 16.1 mph 34.5 mph N/A   Clear
5:53 AM 37.0 °F 28.1 °F 10.0 °F 33% 30.14 in 10.0 mi WNW 15.0 mph 26.5 mph N/A   Clear
6:53 AM 35.1 °F 26.4 °F 3.0 °F 26% 30.17 in 10.0 mi WNW 12.7 mph 24.2 mph N/A   Clear
7:53 AM 35.1 °F 26.9 °F 7.0 °F 31% 30.19 in 10.0 mi NW 11.5 mph 23.0 mph N/A   Clear
8:53 AM 36.0 °F 26.3 °F 8.1 °F 31% 30.21 in 10.0 mi NW 16.1 mph 27.6 mph N/A   Clear
9:53 AM 37.9 °F 29.6 °F 8.1 °F 29% 30.23 in 10.0 mi WNW 13.8 mph 23.0 mph N/A   Clear
10:53 AM 39.9 °F 33.4 °F 5.0 °F 23% 30.24 in 10.0 mi WNW 10.4 mph 23.0 mph N/A   Clear
11:53 AM 42.1 °F 34.9 °F 1.9 °F 19% 30.22 in 10.0 mi WNW 13.8 mph 23.0 mph N/A   Clear
12:53 PM 43.0 °F 36.0 °F 1.9 °F 18% 30.20 in 10.0 mi NNW 13.8 mph 26.5 mph N/A   Clear
1:53 PM 45.0 °F 39.3 °F 3.9 °F 18% 30.19 in 10.0 mi NW 11.5 mph 24.2 mph N/A   Clear
2:53 PM 44.1 °F 39.5 °F 5.0 °F 20% 30.19 in 10.0 mi WNW 8.1 mph 17.3 mph N/A   Clear
3:53 PM 44.1 °F 38.1 °F 3.9 °F 19% 30.20 in 10.0 mi WNW 11.5 mph 21.9 mph N/A   Clear
4:53 PM 43.0 °F 37.7 °F 3.9 °F 20% 30.21 in 10.0 mi NW 9.2 mph 20.7 mph N/A   Clear
5:53 PM 39.9 °F 35.1 °F 5.0 °F 23% 30.23 in 10.0 mi NW 6.9 mph - N/A   Clear
6:53 PM 37.9 °F 34.4 °F 7.0 °F 28% 30.23 in 10.0 mi West 4.6 mph - N/A   Clear
7:53 PM 35.1 °F - 9.0 °F 34% 30.23 in 10.0 mi Calm Calm - N/A   Clear
8:53 PM 30.0 °F - 12.0 °F 47% 30.23 in 10.0 mi Calm Calm - N/A   Clear
9:53 PM 27.0 °F - 15.1 °F 61% 30.23 in 10.0 mi Calm Calm - N/A   Clear
10:53 PM 28.0 °F - 15.1 °F 58% 30.23 in 10.0 mi Calm Calm - N/A   Clear
11:53 PM 28.0 °F - 12.0 °F 51% 30.22 in 10.0 mi Calm Calm - N/A   Clear